EJU49Y EHBK-EHAM

Flight info

Callsign EJU49Y
Flight time 0h 30m
Altitude 6000
Route PESER
Aircraft A320/M-SDE3FGHIRWY/LB1

Departure

Time 2026-05-08 21:32
Airport Maastricht Aachen Airport (EHBK)

Arrival

Time 2026-05-08 22:02
Airport Amsterdam Airport Schiphol (EHAM)
Time Latitude Longitude Altitude Speed Heading
2026-05-08 21:10 50.91858 5.78118 384 ft 0 kts 301°
2026-05-08 21:27 50.91860 5.78112 384 ft 4 kts 301°
2026-05-08 21:27 50.91874 5.78077 384 ft 3 kts 302°
2026-05-08 21:27 50.91912 5.78074 384 ft 10 kts 20°
2026-05-08 21:27 50.91981 5.78110 384 ft 10 kts 346°
2026-05-08 21:28 50.92036 5.78002 384 ft 15 kts 303°
2026-05-08 21:28 50.92022 5.77864 383 ft 18 kts 214°
2026-05-08 21:28 50.91896 5.77737 383 ft 27 kts 213°
2026-05-08 21:28 50.91718 5.77559 382 ft 32 kts 212°
2026-05-08 21:29 50.91523 5.77365 383 ft 35 kts 213°
2026-05-08 21:29 50.91304 5.77137 383 ft 41 kts 212°
2026-05-08 21:29 50.91044 5.76875 382 ft 45 kts 212°
2026-05-08 21:29 50.90778 5.76611 384 ft 43 kts 213°
2026-05-08 21:30 50.90530 5.76358 385 ft 43 kts 212°
2026-05-08 21:30 50.90282 5.76106 383 ft 41 kts 212°
2026-05-08 21:30 50.90102 5.75920 384 ft 29 kts 216°
2026-05-08 21:30 50.90048 5.75782 385 ft 10 kts 205°
2026-05-08 21:31 50.90021 5.75843 386 ft 7 kts 69°
2026-05-08 21:31 50.90086 5.75909 385 ft 19 kts 32°
2026-05-08 21:31 50.90424 5.76251 385 ft 95 kts 32°
2026-05-08 21:31 50.91168 5.77017 386 ft 154 kts 33°
2026-05-08 21:32 50.92083 5.77983 1019 ft 156 kts 40°
2026-05-08 21:32 50.92857 5.79161 1771 ft 160 kts 48°
2026-05-08 21:32 50.93655 5.80574 2248 ft 179 kts 55°
2026-05-08 21:32 50.94192 5.82469 2676 ft 201 kts 72°
2026-05-08 21:33 50.94664 5.84710 3164 ft 227 kts 72°
2026-05-08 21:33 50.95210 5.87198 3703 ft 250 kts 71°
2026-05-08 21:33 50.95802 5.89858 4551 ft 261 kts 71°
2026-05-08 21:33 50.96436 5.92596 5494 ft 267 kts 66°
2026-05-08 21:34 50.97490 5.95050 6417 ft 274 kts 43°
2026-05-08 21:34 50.99104 5.96680 6935 ft 278 kts 18°
2026-05-08 21:34 51.01000 5.96985 7091 ft 276 kts 350°
2026-05-08 21:34 51.02779 5.95919 7142 ft 277 kts 324°
2026-05-08 21:35 51.04117 5.93791 7140 ft 273 kts 307°
2026-05-08 21:35 51.05290 5.91408 7138 ft 273 kts 307°
2026-05-08 21:35 51.06478 5.89010 7452 ft 282 kts 308°
2026-05-08 21:35 51.07700 5.86558 8332 ft 291 kts 308°
2026-05-08 21:36 51.09008 5.83934 8772 ft 315 kts 308°
2026-05-08 21:36 51.10414 5.81109 9131 ft 339 kts 308°
2026-05-08 21:36 51.11942 5.78039 9420 ft 362 kts 308°
2026-05-08 21:36 51.13529 5.74854 10063 ft 373 kts 308°
2026-05-08 21:37 51.15158 5.71581 10650 ft 383 kts 308°
2026-05-08 21:37 51.16828 5.68217 11258 ft 390 kts 308°
2026-05-08 21:37 51.18521 5.64799 12013 ft 393 kts 307°
2026-05-08 21:37 51.20216 5.61370 12785 ft 395 kts 307°
2026-05-08 21:38 51.21922 5.57917 13581 ft 397 kts 307°
2026-05-08 21:38 51.23630 5.54454 14333 ft 398 kts 307°
2026-05-08 21:38 51.25350 5.50965 15069 ft 399 kts 307°
2026-05-08 21:38 51.27066 5.47480 15771 ft 401 kts 307°
2026-05-08 21:39 51.28810 5.43925 16050 ft 414 kts 307°
2026-05-08 21:39 51.30603 5.40258 16125 ft 422 kts 307°
2026-05-08 21:39 51.32418 5.36543 16139 ft 423 kts 307°
2026-05-08 21:39 51.34228 5.32833 16135 ft 423 kts 307°
2026-05-08 21:40 51.36032 5.29130 16135 ft 423 kts 307°
2026-05-08 21:40 51.37840 5.25412 16140 ft 423 kts 307°
2026-05-08 21:40 51.39658 5.21675 16136 ft 424 kts 307°
2026-05-08 21:41 51.43256 5.14283 16132 ft 409 kts 307°
2026-05-08 21:41 51.44955 5.10782 16131 ft 388 kts 307°
2026-05-08 21:41 51.46566 5.07441 16134 ft 370 kts 307°
2026-05-08 21:41 51.48106 5.04254 16139 ft 353 kts 307°
2026-05-08 21:42 51.49586 5.01189 16140 ft 344 kts 307°
2026-05-08 21:42 51.51048 4.98164 16134 ft 342 kts 307°
2026-05-08 21:42 51.52508 4.95140 16142 ft 342 kts 307°
2026-05-08 21:42 51.53963 4.92121 16139 ft 342 kts 307°
2026-05-08 21:43 51.55414 4.89096 16139 ft 342 kts 307°
2026-05-08 21:43 51.56862 4.86074 16140 ft 342 kts 307°
2026-05-08 21:43 51.58314 4.83040 16145 ft 342 kts 307°
2026-05-08 21:43 51.59763 4.80013 16140 ft 342 kts 307°
2026-05-08 21:44 51.60723 4.78005 16134 ft 342 kts 307°
2026-05-08 21:44 51.62161 4.74992 16145 ft 342 kts 307°
2026-05-08 21:44 51.63617 4.71942 16135 ft 342 kts 307°
2026-05-08 21:44 51.64757 4.69561 16140 ft 342 kts 307°
2026-05-08 21:45 51.66204 4.66530 16142 ft 342 kts 307°
2026-05-08 21:45 51.67653 4.63484 16143 ft 342 kts 307°
2026-05-08 21:45 51.69093 4.60449 16138 ft 339 kts 306°
2026-05-08 21:45 51.70498 4.57489 16133 ft 325 kts 306°
2026-05-08 21:46 51.71855 4.54628 16144 ft 319 kts 306°
2026-05-08 21:46 51.73195 4.51795 16149 ft 318 kts 306°
2026-05-08 21:46 51.74532 4.48961 16153 ft 317 kts 306°
2026-05-08 21:46 51.75867 4.46125 16150 ft 317 kts 306°
2026-05-08 21:47 51.77202 4.43285 16151 ft 317 kts 306°
2026-05-08 21:47 51.78537 4.40450 16159 ft 317 kts 306°
2026-05-08 21:47 51.79869 4.37626 16163 ft 317 kts 306°
2026-05-08 21:47 51.81205 4.34789 16160 ft 317 kts 306°
2026-05-08 21:48 51.82533 4.31960 16150 ft 317 kts 306°
2026-05-08 21:48 51.83884 4.29074 15518 ft 326 kts 306°
2026-05-08 21:48 51.85237 4.26186 15084 ft 318 kts 306°
2026-05-08 21:48 51.86557 4.23365 14599 ft 312 kts 306°
2026-05-08 21:49 51.87861 4.20578 14101 ft 309 kts 306°
2026-05-08 21:49 51.89221 4.17911 13601 ft 307 kts 314°
2026-05-08 21:49 51.90856 4.15701 13061 ft 307 kts 325°
2026-05-08 21:49 51.92741 4.14031 12211 ft 312 kts 337°
2026-05-08 21:50 51.94827 4.13015 11379 ft 314 kts 349°
2026-05-08 21:50 51.96981 4.12671 10823 ft 306 kts 356°
2026-05-08 21:50 51.99053 4.12468 10649 ft 294 kts 355°
2026-05-08 21:50 52.01084 4.12246 10514 ft 291 kts 355°
2026-05-08 21:51 52.03103 4.12018 10384 ft 292 kts 355°
2026-05-08 21:51 52.05115 4.11818 10254 ft 290 kts 359°
2026-05-08 21:51 52.07118 4.12206 10088 ft 290 kts 13°
2026-05-08 21:51 52.09001 4.13355 9499 ft 288 kts 25°
2026-05-08 21:52 52.10805 4.14746 9003 ft 286 kts 24°
2026-05-08 21:52 52.12593 4.16114 8446 ft 284 kts 24°
2026-05-08 21:52 52.14374 4.17472 7913 ft 281 kts 24°
2026-05-08 21:52 52.16114 4.18793 7459 ft 278 kts 24°
2026-05-08 21:53 52.17864 4.20121 6994 ft 276 kts 24°
2026-05-08 21:53 52.19623 4.21444 6553 ft 275 kts 24°
2026-05-08 21:53 52.21339 4.22733 6071 ft 266 kts 24°
2026-05-08 21:53 52.22986 4.23968 5631 ft 255 kts 24°
2026-05-08 21:54 52.24560 4.25135 5251 ft 244 kts 24°
2026-05-08 21:54 52.26007 4.26190 4888 ft 237 kts 24°
2026-05-08 21:54 52.27498 4.27329 4492 ft 233 kts 33°
2026-05-08 21:54 52.28535 4.29310 4212 ft 227 kts 69°
2026-05-08 21:55 52.28714 4.31852 4082 ft 230 kts 101°
2026-05-08 21:55 52.28012 4.34143 3958 ft 229 kts 135°
2026-05-08 21:55 52.26672 4.35415 3997 ft 229 kts 165°
2026-05-08 21:56 52.23953 4.37306 4004 ft 200 kts 139°
2026-05-08 21:56 52.23052 4.38963 3906 ft 191 kts 122°
2026-05-08 21:56 52.22464 4.40869 3797 ft 188 kts 115°
2026-05-08 21:56 52.21910 4.42790 3654 ft 187 kts 115°
2026-05-08 21:57 52.21354 4.44703 3539 ft 186 kts 115°
2026-05-08 21:57 52.20927 4.46683 3410 ft 185 kts 99°
2026-05-08 21:57 52.20857 4.48770 3281 ft 185 kts 91°
2026-05-08 21:57 52.20824 4.50858 3130 ft 184 kts 91°
2026-05-08 21:58 52.20971 4.52907 2919 ft 180 kts 71°
2026-05-08 21:58 52.21556 4.54674 2691 ft 176 kts 58°
2026-05-08 21:58 52.22206 4.56332 2456 ft 172 kts 59°
2026-05-08 21:58 52.22844 4.57976 2223 ft 170 kts 59°
2026-05-08 21:59 52.23468 4.59586 2011 ft 164 kts 59°
2026-05-08 21:59 52.24071 4.61144 1777 ft 160 kts 59°
2026-05-08 21:59 52.24647 4.62632 1563 ft 151 kts 60°
2026-05-08 21:59 52.25203 4.64053 1367 ft 145 kts 59°
2026-05-08 22:00 52.25732 4.65400 1145 ft 137 kts 61°
2026-05-08 22:00 52.26218 4.66714 1008 ft 135 kts 61°
2026-05-08 22:00 52.26710 4.68028 836 ft 136 kts 61°
2026-05-08 22:00 52.27217 4.69320 681 ft 134 kts 58°
2026-05-08 22:01 52.27716 4.70613 529 ft 135 kts 60°
2026-05-08 22:01 52.28212 4.71938 325 ft 137 kts 57°
2026-05-08 22:01 52.28721 4.73238 125 ft 136 kts 57°
2026-05-08 22:01 52.29212 4.74507 11 ft 123 kts 58°
2026-05-08 22:02 52.29611 4.75550 -1 ft 88 kts 58°
2026-05-08 22:02 52.29847 4.76166 -4 ft 47 kts 58°
2026-05-08 22:02 52.30007 4.76517 -2 ft 29 kts 34°
2026-05-08 22:02 52.30168 4.76659 -1 ft 23 kts 27°
2026-05-08 22:03 52.30275 4.76757 -1 ft 18 kts 34°
2026-05-08 22:03 52.30339 4.76900 -1 ft 15 kts 58°
2026-05-08 22:03 52.30403 4.77061 -1 ft 18 kts 56°
2026-05-08 22:03 52.30475 4.77248 -1 ft 21 kts 58°
2026-05-08 22:04 52.30560 4.77467 -1 ft 25 kts 57°
2026-05-08 22:04 52.30702 4.77601 -1 ft 25 kts
2026-05-08 22:04 52.30885 4.77609 -1 ft 27 kts
2026-05-08 22:04 52.31080 4.77627 -1 ft 29 kts
2026-05-08 22:05 52.31286 4.77647 -1 ft 30 kts
2026-05-08 22:05 52.31424 4.77652 -1 ft 13 kts 351°
2026-05-08 22:05 52.31518 4.77547 -1 ft 19 kts 315°
2026-05-08 22:05 52.31577 4.77342 -1 ft 22 kts 269°
2026-05-08 22:06 52.31568 4.77086 -1 ft 22 kts 266°
2026-05-08 22:06 52.31559 4.76824 -1 ft 24 kts 267°
2026-05-08 22:06 52.31550 4.76568 -1 ft 18 kts 267°
2026-05-08 22:06 52.31543 4.76346 -1 ft 21 kts 267°
2026-05-08 22:07 52.31535 4.76102 -1 ft 19 kts 266°
2026-05-08 22:07 52.31530 4.75946 -1 ft 10 kts 266°
2026-05-08 22:07 52.31525 4.75805 -1 ft 18 kts 267°
2026-05-08 22:07 52.31518 4.75609 -1 ft 15 kts 266°
2026-05-08 22:08 52.31486 4.75453 -1 ft 14 kts 217°
2026-05-08 22:08 52.31396 4.75448 -1 ft 13 kts 174°
2026-05-08 22:08 52.31306 4.75456 -1 ft 14 kts 178°
2026-05-08 22:08 52.31232 4.75460 -1 ft 12 kts 178°
2026-05-08 22:09 52.31145 4.75461 -1 ft 9 kts 189°
2026-05-08 22:09 52.31099 4.75434 -1 ft 4 kts 205°
2026-05-08 22:09 52.31072 4.75390 -1 ft 0 kts 240°
2026-05-08 22:09 52.31070 4.75363 -1 ft 8 kts 260°
2026-05-08 22:10 52.30999 4.75273 -1 ft 10 kts 177°